#timestamp,LO_Frequency,Hit 
1503403215.7,286046996.8,N
1503403235.5,286046996.7,N
1503403255.4,286046997.1,N
1503403275.2,286046997.8,N
1503403295.0,286046994.9,P
1503403296.0,286046994.9,P
1503403315.8,286046998.9,N
1503403335.6,286046999.5,N
1503403355.4,286046996.9,N
1503403375.3,286046996.6,N
1503403395.1,286046994.9,P
1503403415.8,286046998.5,N
1503403435.7,286046999.5,N
1503403455.5,286046999.1,N
1503403475.3,286046999.4,N
1503403495.2,286046996.6,N
1503403515.9,286046996.6,N
1503403535.7,286046997.0,N
1503403555.6,286046996.8,N
1503403575.4,286046997.2,N
1503403595.2,286046997.8,N
1503403615.1,286046997.6,N
1503403616.0,286046997.6,N
1503403635.8,286046997.2,N
1503403655.6,286046997.9,N
1503403675.4,286046998.0,N
1503403695.3,286046996.8,N
1503403715.1,286046997.6,N
1503403735.9,286046996.8,P
1503403755.7,286046999.1,N
1503403775.5,286046997.6,N
1503403795.4,286046995.4,P
1503403815.2,286046998.9,N
1503403835.0,286046999.1,N
1503403835.9,286046999.1,N
1503403855.8,286046999.5,N
1503403875.6,286046999.6,N
1503403895.4,286046996.6,N
1503403915.2,286046999.6,N
1503403935.1,286046999.5,N
1503403936.0,286046999.5,N
1503403955.8,286046997.7,N
1503403975.6,286046997.9,N
1503403995.5,286046995.3,P
1503404015.3,286046996.6,N
1503404035.1,286046997.0,N
1503404055.9,286046996.7,N
1503404075.7,286046997.2,N
1503404095.5,286046994.9,P
1503404115.4,286046996.5,P
1503404135.2,286046997.2,P
1503404155.0,286046997.2,P
1503404156.0,286046997.2,P
1503404175.8,286047000.1,N
1503404195.6,286047000.7,N
1503404215.4,286046998.9,N
1503404235.3,286046996.6,N
1503404255.1,286046996.5,N
1503404275.8,286046998.6,N
1503404295.7,286046998.7,N
1503404315.5,286046998.6,N
1503404335.3,286046999.1,N
1503404355.2,286046999.5,N
1503404375.9,286046996.5,N
1503404395.7,286046997.9,N
1503404415.6,286046995.7,P
1503404435.4,286046996.8,N
1503404455.2,286046997.9,N
1503404475.1,286046997.4,N
1503404476.0,286046997.4,N
1503404495.8,286046996.7,P
1503404515.6,286046998.2,P
1503404535.5,286046998.1,P
1503404555.3,286047000.8,N
1503404575.1,286046999.3,N
1503404595.9,286046998.3,N
1503404615.7,286046998.3,N
1503404635.5,286046998.9,N
1503404655.3,286046998.7,N
1503404675.2,286046999.5,N
1503404695.0,286046996.6,P
1503404695.9,286046996.6,P
1503404715.8,286046996.9,P
1503404735.6,286046996.8,P
1503404755.4,286046999.8,N
1503404775.3,286046999.9,N
1503404795.1,286047002.7,N
1503404796.0,286047002.7,N
1503404815.8,286047002.7,N
1503404835.7,286046998.3,N
1503404855.5,286046998.5,N
1503404875.3,286046998.1,N
1503404895.1,286047001.2,N
1503404915.9,286047000.7,N
1503404935.7,286047001.2,N
1503404955.5,286046998.2,N
1503404975.4,286046998.2,N
1503404995.2,286046998.7,N
1503405015.0,286047001.2,N
1503405015.9,286047001.2,N
1503405035.8,286046998.6,N
1503405055.6,286046998.5,N
1503405075.4,286046998.6,N
1503405095.3,286046999.6,N
1503405115.1,286046998.8,N
1503405116.0,286046998.8,N
1503405135.8,286046999.1,N
1503405155.7,286046997.0,N
1503405175.5,286046997.4,N
1503405195.3,286046997.1,N
1503405215.2,286046997.5,N
1503405235.9,286046997.4,N
1503405255.7,286046997.9,N
1503405275.6,286046993.5,P
1503405295.4,286046995.8,N
1503405315.2,286046995.8,N
1503405335.1,286046995.7,N
1503405336.0,286046995.7,N
1503405355.8,286046995.9,N
1503405375.6,286046993.4,P
1503405395.5,286046999.2,N
1503405415.3,286046997.1,N
1503405435.1,286046997.8,N
1503405455.9,286046997.8,N
1503405475.7,286046997.5,N
1503405495.5,286046995.7,N
1503405515.4,286046994.9,P
1503405535.2,286047000.9,N
1503405555.0,286047000.9,N
1503405555.9,286047000.9,N
1503405575.8,286047001.2,N
1503405595.6,286046998.5,N
1503405615.4,286046998.7,N
1503405635.2,286046999.1,N
1503405655.1,286046998.8,N
1503405656.0,286046998.8,N
1503405675.8,286047001.1,N
1503405695.6,286047000.9,N
1503405715.5,286046998.3,N
1503405735.3,286046999.0,N
1503405755.1,286046996.5,N
1503405775.9,286046997.1,N
1503405795.7,286046995.2,N
1503405815.5,286046994.9,N
1503405835.4,286046995.5,N
1503405855.2,286046995.7,N
1503405875.0,286046995.9,N
1503405875.9,286046995.9,N
1503405895.8,286046993.8,N
1503405915.6,286046995.2,N
1503405935.4,286046995.5,N
1503405955.2,286046993.3,N
1503405975.1,286046996.2,N
1503405976.0,286046996.2,N
1503405995.8,286046995.0,N
1503406015.6,286046996.2,N
1503406035.5,286046995.4,N
1503406055.3,286046997.0,N
1503406075.1,286046994.9,N
1503406095.9,286046995.1,N
1503406115.7,286046993.9,N
1503406135.5,286046994.2,N
1503406155.4,286046994.0,P
1503406175.2,286046995.9,P
1503406195.0,286046994.9,P
1503406195.9,286046994.9,P
1503406215.8,286047002.6,P
1503406235.6,286047002.5,N
1503406255.4,286047000.3,N
1503406275.3,286047002.7,N
1503406295.1,286047000.4,N
1503406315.8,286047000.2,N
1503406335.7,286047000.8,N
1503406355.5,286047000.2,N
1503406375.3,286047000.3,N
1503406395.2,286046998.6,N
1503406415.9,286047000.4,N
1503406435.7,286046998.5,N
1503406455.6,286046998.1,N
1503406475.4,286046998.2,N
1503406495.2,286046998.2,N
1503406515.0,286046998.3,N
1503406516.0,286046998.3,N
1503406535.8,286046998.5,N
1503406555.6,286046998.9,N
1503406575.4,286046996.9,N
1503406595.3,286046997.7,N
1503406615.1,286046997.4,N
1503406635.8,286046997.4,N
1503406655.7,286046998.7,N
1503406675.5,286046998.4,N
1503406695.3,286046999.2,N
1503406715.2,286046999.1,N
1503406735.9,286046996.9,N
1503406755.7,286046996.7,N
1503406775.6,286046997.7,N
1503406795.4,286046995.5,N
